Milford, UT

6:59 AM MST on November 19, 2019 (GMT -0700)
Milford Municipal

Weather History for KMLF - October, 2019

Change the Weather History Date:

Sunday, October 20, 2019

  Actual Average Record
Temperature  
Mean Temperature 38 °F -  
Max Temperature 52 °F 62 °F 82 °F (2003)
Min Temperature 24 °F 30 °F 19 °F (1999)
Degree Days  
Heating Degree Days 27    
Moisture  
Dew Point 25 °F    
Average Humidity 56    
Maximum Humidity 88    
Minimum Humidity 23    
Precipitation  
Precipitation 0.00 in - - ()
Sea Level Pressure  
Sea Level Pressure 30.04 in    
Wind  
Wind Speed 13 mph ()    
Max Wind Speed 24 mph    
Max Gust Speed 31 mph    
Visibility 10.0 miles    
Events      
Averages and records for this station are not official NWS values.
T = Trace of Precipitation, MM = Missing Value Source: Averaged Metar Reports

Daily Weather History Graph

Daily Weather History Graph

Search for Another Location

Airport or City:

Astronomy

Oct. 20, 2019 Rise Set
Actual Time 7:45 AM MDT 6:47 PM MDT
Civil Twilight 7:18 AM MDT 7:14 PM MDT
Nautical Twilight 6:48 AM MDT 7:44 PM MDT
Astronomical Twilight 6:17 AM MDT 8:15 PM MDT
Moon No Moon Rise 2:14 PM MDT (10/20)
Length of Visible Light 11h 55m
Length of Day
11h 01m
Waning Gibbous, 58% of the Moon is Illuminated
Oct 20
Waning Gibbous
Oct 21
Last Quarter
Oct 27
New
Nov 4
First Quarter
Nov 12
Full

Hourly Weather History & Observations

Time (MDT) Temp. Windchill Dew Point Humidity Pressure Visibility Wind Dir Wind Speed Gust Speed Precip Events Conditions
12:50 AM 46.4 °F 39.8 °F 33.8 °F 62% 29.96 in 10.0 mi North 16.1 mph - N/A   Overcast
12:52 AM 46.9 °F - 34.0 °F 61% 29.86 in 10.0 mi North 15.0 mph - N/A   Overcast
1:00 AM 45.0 °F 36.4 °F 34.0 °F 65% 29.97 in 10.0 mi North 23.0 mph 28.8 mph N/A   Overcast
1:02 AM 45.0 °F 36.2 °F 34.0 °F 65% 29.96 in 10.0 mi North 24.2 mph 31.1 mph N/A   Overcast
1:04 AM 44.6 °F 36.1 °F 33.8 °F 66% 29.96 in 10.0 mi North 21.9 mph 31.1 mph N/A   Overcast
1:09 AM 43.0 °F 34.2 °F 33.1 °F 68% 29.97 in 10.0 mi North 20.7 mph 31.1 mph N/A   Mostly Cloudy
1:14 AM 42.1 °F 33.1 °F 32.0 °F 67% 29.97 in 10.0 mi North 20.7 mph 27.6 mph N/A   Mostly Cloudy
1:16 AM 42.1 °F 33.1 °F 32.0 °F 67% 29.97 in 10.0 mi North 20.7 mph 27.6 mph N/A   Mostly Cloudy
1:18 AM 42.1 °F 33.1 °F 32.0 °F 67% 29.97 in 10.0 mi North 20.7 mph 27.6 mph N/A   Scattered Clouds
1:20 AM 42.1 °F 32.8 °F 32.0 °F 67% 29.97 in 10.0 mi North 21.9 mph 27.6 mph N/A   Scattered Clouds
1:29 AM 41.0 °F 31.9 °F 32.0 °F 70% 29.98 in 10.0 mi North 19.6 mph 27.6 mph N/A   Partly Cloudy
1:31 AM 41.0 °F 32.8 °F 32.0 °F 70% 29.98 in 10.0 mi North 16.1 mph 25.3 mph N/A   Partly Cloudy
1:33 AM 41.0 °F 32.8 °F 32.0 °F 70% 29.98 in 10.0 mi North 16.1 mph 25.3 mph N/A   Partly Cloudy
1:35 AM 41.0 °F 32.2 °F 32.0 °F 70% 29.98 in 10.0 mi North 18.4 mph 25.3 mph N/A   Clear
1:47 AM 39.2 °F 29.8 °F 32.0 °F 75% 29.98 in 10.0 mi North 18.4 mph - N/A   Clear
1:52 AM 39.9 °F 31.1 °F 32.0 °F 73% 29.89 in 10.0 mi NNW 17.3 mph - N/A   Clear
2:52 AM 37.0 °F 31.0 °F 30.0 °F 76% 29.92 in 10.0 mi North 8.1 mph - N/A   Clear
3:52 AM 34.0 °F - 28.9 °F 82% 29.94 in 10.0 mi Calm Calm - N/A   Clear
4:52 AM 32.0 °F 27.5 °F 28.0 °F 85% 29.96 in 10.0 mi ENE 4.6 mph - N/A   Clear
5:52 AM 26.1 °F - 23.0 °F 88% 30.00 in 10.0 mi Calm Calm - N/A   Clear
6:52 AM 26.1 °F - 21.9 °F 84% 30.03 in 10.0 mi Calm Calm - N/A   Clear
7:52 AM 24.1 °F 15.2 °F 19.9 °F 84% 30.06 in 10.0 mi SSW 8.1 mph - N/A   Clear
8:52 AM 30.9 °F 26.2 °F 26.1 °F 82% 30.09 in 10.0 mi WSW 4.6 mph - N/A   Clear
9:52 AM 39.0 °F - 28.9 °F 67% 30.10 in 10.0 mi Calm Calm - N/A   Clear
10:52 AM 45.0 °F 40.6 °F 26.1 °F 48% 30.10 in 10.0 mi North 8.1 mph - N/A   Clear
11:52 AM 46.0 °F 41.4 °F 24.1 °F 42% 30.11 in 10.0 mi NE 9.2 mph 19.6 mph N/A   Scattered Clouds
12:34 PM 48.0 °F - 19.9 °F 33% 30.17 in 10.0 mi North 11.5 mph 20.7 mph N/A   Clear
12:52 PM 48.9 °F - 21.0 °F 33% 30.10 in 10.0 mi NNE 12.7 mph 19.6 mph N/A   Partly Cloudy
1:52 PM 50.0 °F - 18.0 °F 28% 30.11 in 10.0 mi North 11.5 mph - N/A   Clear
2:52 PM 50.0 °F - 16.0 °F 26% 30.09 in 10.0 mi NNE 13.8 mph 19.6 mph N/A   Clear
3:04 PM 51.1 °F - 16.0 °F 25% 30.13 in 10.0 mi North 12.7 mph - N/A   Clear
3:09 PM 50.0 °F - 16.0 °F 26% 30.13 in 10.0 mi Variable 3.5 mph - N/A   Clear
3:52 PM 52.0 °F - 15.1 °F 23% 30.10 in 10.0 mi NNE 9.2 mph 18.4 mph N/A   Clear
4:52 PM 50.0 °F - 15.1 °F 25% 30.12 in 10.0 mi ENE 9.2 mph - N/A   Clear
5:52 PM 50.0 °F - 14.0 °F 24% 30.13 in 10.0 mi NNE 6.9 mph - N/A   Clear
6:52 PM 45.0 °F 42.6 °F 14.0 °F 29% 30.14 in 10.0 mi NE 4.6 mph - N/A   Clear
7:52 PM 35.1 °F - 12.0 °F 39% 30.18 in 10.0 mi Calm Calm - N/A   Clear
8:52 PM 34.0 °F 29.8 °F 12.0 °F 40% 30.18 in 10.0 mi West 4.6 mph - N/A   Clear
9:52 PM 36.0 °F 33.3 °F 14.0 °F 41% 30.14 in 10.0 mi Variable 3.5 mph - N/A   Clear
10:52 PM 33.1 °F 30.0 °F 12.0 °F 42% 30.15 in 10.0 mi WSW 3.5 mph - N/A   Clear
11:52 PM 32.0 °F 24.2 °F 12.9 °F 45% 30.13 in 10.0 mi West 9.2 mph - N/A   Clear